Weather History for Nome, AK

Change the Weather History Date:

Thursday, December 23, 2010

  Actual Average Record
Temperature  
Mean Temperature 9 °F -  
Max Temperature 11 °F 16 °F 37 °F (1985)
Min Temperature 7 °F - -32 °F (1994)
Degree Days  
Heating Degree Days 56 57  
Month to date heating degree days 1293 1259  
Since 1 July heating degree days 5043 5357  
Cooling Degree Days 0    
Month to date cooling degree days 0  
Year to date cooling degree days 2  
Moisture  
Dew Point 6 °F    
Average Humidity 0    
Maximum Humidity 0    
Minimum Humidity 0    
Precipitation  
Precipitation 0.18 in 0.04 in 0.52 in (1921)
Month to date precipitation 1.43 0.80  
Year to date precipitation 14.08 16.53  
Snow  
Snow 5.40 in 0.40 in 5.40 in (2010)
Month to date snowfall 23.9 10.6  
Since 1 July snowfall 33.5 27.9  
Snow Depth 24.00 in    
Sea Level Pressure  
Sea Level Pressure 30.12 in    
Wind  
Wind Speed 20 mph (ENE)    
Max Wind Speed 30 mph    
Max Gust Speed 36 mph    
Visibility 2 miles    
Events Fog , Snow    
T = Trace of Precipitation, MM = Missing Value Source: NWS Daily Summary

Daily Weather History Graph

Daily Weather History Graph

Search for Another Location

Airport:

Trip Planner

Search our weather history database for the weather conditions in past years. The results will help you decide how hot, cold, wet, or windy it might be!

Date:

Astronomy

Dec. 23, 2010 Rise Set
Actual Time 12:03 PM AKST 3:58 PM AKST
Civil Twilight 10:41 AM AKST 5:20 PM AKST
Nautical Twilight 9:30 AM AKST 6:31 PM AKST
Astronomical Twilight 8:29 AM AKST 7:32 PM AKST
Moon 8:24 PM AKST 12:48 PM AKST
Length of Visible Light 6h 39m
Length of Day
3h 54m
Waning Gibbous, 92% of the Moon is Illuminated
Dec 23
Waning Gibbous
Dec 27
Last Quarter
Jan 4
New
Jan 12
First Quarter
Jan 19
Full

Hourly Weather History & Observations

Time (AKST) Temp. Windchill Dew Point Humidity Pressure Visibility Wind Dir Wind Speed Gust Speed Precip Events Conditions
12:28 AM 10.4 °F -6.6 °F 6.8 °F 85% 30.47 in 3.0 mi East 16.1 mph 23.0 mph 0.00 in Snow Light Snow
12:53 AM 10.0 °F -7.1 °F 7.0 °F 87% 30.46 in 3.0 mi East 16.1 mph - 0.00 in Snow Light Snow
1:44 AM 10.4 °F -6.6 °F 6.8 °F 85% 30.44 in 2.0 mi East 16.1 mph - 0.00 in Snow Light Snow
1:53 AM 10.0 °F -7.1 °F 7.0 °F 87% 30.43 in 2.0 mi East 16.1 mph - 0.00 in Snow Light Snow
1:59 AM 10.4 °F -6.6 °F 6.8 °F 85% 30.43 in 2.0 mi East 16.1 mph - 0.00 in Snow Light Snow
2:23 AM 10.4 °F -7.7 °F 6.8 °F 85% 30.41 in 1.2 mi East 18.4 mph - 0.01 in Snow Light Snow
2:53 AM 10.0 °F -8.1 °F 6.1 °F 84% 30.40 in 1.5 mi East 18.4 mph 25.3 mph 0.01 in Snow Light Snow
3:08 AM 10.4 °F -8.2 °F 6.8 °F 85% 30.38 in 0.8 mi East 19.6 mph - 0.00 in Snow Light Snow
3:53 AM 10.0 °F -8.6 °F 7.0 °F 87% 30.36 in 0.8 mi East 19.6 mph - 0.01 in Snow Light Snow
4:13 AM 10.4 °F -8.2 °F 6.8 °F 85% 30.34 in 1.0 mi East 19.6 mph - 0.00 in Snow Light Snow
4:37 AM 10.4 °F -8.6 °F 6.8 °F 85% 30.33 in 0.8 mi East 20.7 mph - 0.01 in Snow Light Snow
4:53 AM 10.0 °F -8.6 °F 7.0 °F 87% 30.32 in 1.0 mi East 19.6 mph - 0.01 in Snow Light Snow
5:16 AM 10.4 °F -8.6 °F 6.8 °F 85% 30.30 in 0.8 mi East 20.7 mph - 0.01 in Snow Light Snow
5:53 AM 10.0 °F -9.5 °F 7.0 °F 87% 30.28 in 0.8 mi East 21.9 mph - 0.02 in Snow Light Snow
6:53 AM 10.0 °F -10.8 °F 7.0 °F 87% 30.23 in 0.5 mi East 25.3 mph 31.1 mph 0.01 in Fog , Snow Snow
7:01 AM 10.4 °F -8.6 °F 6.8 °F 85% 30.23 in 0.8 mi East 20.7 mph - 0.00 in Snow Light Snow
7:29 AM 10.4 °F -9.5 °F 6.8 °F 85% 30.20 in 0.8 mi East 23.0 mph 29.9 mph 0.01 in Snow Light Snow
7:39 AM 8.6 °F -11.4 °F 6.8 °F 92% 30.20 in 0.5 mi East 21.9 mph - 0.01 in Fog , Snow Snow
7:53 AM 9.0 °F -11.8 °F 6.1 °F 88% 30.19 in 0.2 mi East 24.2 mph 32.2 mph 0.01 in Fog , Snow Snow
8:43 AM 8.6 °F -13.4 °F 6.8 °F 92% 30.15 in 0.2 mi ENE 27.6 mph 34.5 mph 0.03 in Fog , Snow Heavy Snow
8:53 AM 8.1 °F -12.6 °F 6.1 °F 92% 30.14 in 0.2 mi East 23.0 mph 34.5 mph 0.04 in Fog , Snow Heavy Snow
9:18 AM 8.6 °F -11.9 °F 6.8 °F 92% 30.12 in 0.2 mi East 23.0 mph 33.4 mph 0.01 in Fog , Snow Snow
9:46 AM 8.6 °F -12.3 °F 6.8 °F 92% 30.11 in 0.5 mi East 24.2 mph 34.5 mph 0.03 in Fog , Snow Snow
9:53 AM 8.1 °F -14.2 °F 5.0 °F 87% 30.11 in 0.5 mi ENE 27.6 mph 34.5 mph 0.03 in Fog , Snow Light Snow
10:19 AM 8.6 °F -13.8 °F 5.0 °F 85% 30.10 in 0.5 mi ENE 28.8 mph 34.5 mph 0.00 in Fog , Snow Light Snow
10:45 AM 8.6 °F -13.1 °F 5.0 °F 85% 30.09 in 0.5 mi ENE 26.5 mph 32.2 mph 0.02 in Fog , Snow Snow
10:53 AM 8.1 °F -13.8 °F 5.0 °F 87% 30.10 in 0.5 mi ENE 26.5 mph 34.5 mph 0.02 in Fog , Snow Snow
11:10 AM 8.6 °F -13.1 °F 6.8 °F 92% 30.08 in 0.8 mi ENE 26.5 mph 33.4 mph 0.00 in Snow Light Snow
11:16 AM 8.6 °F -13.1 °F 6.8 °F 92% 30.08 in 1.0 mi ENE 26.5 mph 34.5 mph 0.00 in Snow Light Snow
11:31 AM 8.6 °F -12.7 °F 6.8 °F 92% 30.08 in 0.8 mi ENE 25.3 mph 32.2 mph 0.00 in Snow Light Snow
11:38 AM 8.6 °F -13.1 °F 6.8 °F 92% 30.07 in 0.5 mi ENE 26.5 mph - 0.01 in Fog , Snow Snow
11:53 AM 9.0 °F -11.8 °F 6.1 °F 88% 30.07 in 0.5 mi ENE 24.2 mph 33.4 mph 0.01 in Fog , Snow Light Snow
11:59 AM 8.6 °F -12.7 °F 6.8 °F 92% 30.07 in 0.8 mi ENE 25.3 mph 33.4 mph 0.00 in Snow Light Snow
12:11 PM 8.6 °F -13.1 °F 6.8 °F 92% 30.06 in 0.2 mi ENE 26.5 mph 32.2 mph 0.00 in Fog , Snow Heavy Snow
12:24 PM 8.6 °F -11.9 °F 6.8 °F 92% 30.06 in 0.2 mi ENE 23.0 mph 31.1 mph 0.01 in Fog , Snow Snow
12:50 PM 8.6 °F -11.0 °F 6.8 °F 92% 30.05 in 0.8 mi ENE 20.7 mph 27.6 mph 0.01 in Fog , Snow Light Snow
12:53 PM 9.0 °F -10.0 °F 6.1 °F 88% 30.06 in 0.8 mi ENE 19.6 mph 27.6 mph 0.01 in Fog , Snow Light Snow
1:00 PM 10.4 °F -8.2 °F 6.8 °F 85% 30.05 in 1.2 mi ENE 19.6 mph - 0.00 in Fog , Snow Light Snow
1:53 PM 10.0 °F -8.1 °F 7.0 °F 87% 30.03 in 1.0 mi East 18.4 mph - 0.00 in Fog , Snow Light Snow
2:18 PM 10.4 °F -7.2 °F 6.8 °F 85% 30.02 in 1.5 mi East 17.3 mph 25.3 mph 0.00 in Fog , Snow Light Snow
2:27 PM 10.4 °F -8.6 °F 6.8 °F 85% 30.01 in 1.5 mi ENE 20.7 mph 27.6 mph 0.00 in Fog , Snow Light Snow
2:53 PM 10.0 °F -9.1 °F 7.0 °F 87% 30.01 in 1.5 mi ENE 20.7 mph 27.6 mph 0.00 in Fog , Snow Light Snow
3:00 PM 12.2 °F - 8.6 °F 85% 30.04 in - North - - N/A   Overcast
3:53 PM 10.0 °F -9.1 °F 7.0 °F 87% 29.99 in 1.5 mi ENE 20.7 mph 28.8 mph 0.00 in Fog , Snow Light Snow
4:06 PM 10.4 °F -8.6 °F 6.8 °F 85% 29.98 in 1.5 mi ENE 20.7 mph - 0.00 in Fog , Snow Light Snow
4:45 PM 8.6 °F -11.4 °F 6.8 °F 92% 29.98 in 2.0 mi ENE 21.9 mph 27.6 mph 0.00 in Fog , Snow Light Snow
4:53 PM 9.0 °F -9.5 °F 6.1 °F 88% 29.99 in 2.5 mi East 18.4 mph 27.6 mph 0.00 in Fog , Snow Light Snow
5:22 PM 8.6 °F -10.0 °F 6.8 °F 92% 29.98 in 3.0 mi East 18.4 mph - 0.00 in Fog , Snow Blowing Snow
5:38 PM 8.6 °F -10.0 °F 5.0 °F 85% 29.98 in 3.0 mi ENE 18.4 mph - 0.00 in Fog , Snow Blowing Snow
5:50 PM 8.6 °F -10.5 °F 5.0 °F 85% 29.97 in 2.0 mi East 19.6 mph - 0.00 in Fog , Snow Light Snow
5:53 PM 8.1 °F -12.2 °F 5.0 °F 87% 29.97 in 2.0 mi ENE 21.9 mph 27.6 mph 0.00 in Fog , Snow Light Snow
6:14 PM 8.6 °F -10.5 °F 5.0 °F 85% 29.97 in 2.0 mi ENE 19.6 mph - 0.00 in Fog , Snow Light Snow
6:53 PM 8.1 °F -10.7 °F 3.9 °F 83% 29.99 in 5.0 mi East 18.4 mph - 0.00 in Fog , Snow Blowing Snow
7:00 PM 6.8 °F -12.4 °F 3.2 °F 85% 29.98 in 2.5 mi East 18.4 mph - N/A Fog , Snow Blowing Snow
7:06 PM 6.8 °F -12.4 °F 3.2 °F 85% 29.98 in 6.0 mi East 18.4 mph - N/A Fog , Snow Blowing Snow
7:53 PM 8.1 °F -9.6 °F 5.0 °F 87% 29.99 in 6.0 mi East 16.1 mph - 0.00 in Snow Light Snow
8:40 PM 8.6 °F -8.9 °F 5.0 °F 85% 29.98 in 9.0 mi East 16.1 mph - 0.00 in   Mostly Cloudy
8:53 PM 8.1 °F -9.6 °F 3.9 °F 83% 29.99 in 10.0 mi East 16.1 mph - 0.00 in   Mostly Cloudy
9:04 PM 8.6 °F -8.9 °F 3.2 °F 79% 29.99 in 10.0 mi East 16.1 mph - N/A   Mostly Cloudy
9:53 PM 8.1 °F -9.0 °F 3.9 °F 83% 30.00 in 10.0 mi East 15.0 mph - N/A   Mostly Cloudy
10:22 PM 8.6 °F -8.3 °F 3.2 °F 79% 30.00 in 5.0 mi East 15.0 mph - 0.00 in Snow Light Snow
10:53 PM 8.1 °F -7.7 °F 3.9 °F 83% 30.01 in 8.0 mi East 12.7 mph - 0.00 in Snow Light Snow
11:44 PM 8.6 °F -7.0 °F 3.2 °F 79% 30.02 in 3.0 mi East 12.7 mph - 0.00 in Snow Light Snow
11:50 PM 8.6 °F -7.0 °F 3.2 °F 79% 30.03 in 2.5 mi East 12.7 mph - 0.00 in Snow Light Snow
11:53 PM 8.1 °F -7.7 °F 3.9 °F 83% 30.03 in 2.5 mi East 12.7 mph - 0.00 in Snow Light Snow
11:56 PM 8.6 °F -6.3 °F 3.2 °F 79% 30.03 in 2.5 mi East 11.5 mph - 0.00 in Snow Light Snow